STARLINK-2062 (47670 NORAD) Tracking and Keplerian Element Data
This shows tracking and keplerian element data for the satellite.
Feedback or suggestion? Click here.
Element | Value |
Catalog | 47670 |
Name | STARLINK-2062 |
Epoch Orbit | 177 |
Epoch Day | 101.91668981 |
Epoch Year | 2021 |
RAAN | 189.7434 |
Inclination | 53.0481 |
Eccentricity | 0.0001398 |
Argument of Perigee | 36.8496 |
Mean Anonmoly | 358.6503 |
Mean Motion | 15.58451893 |
Decay Rate | -0.00491406 |
L1 | 1 47670U 21012BC 21101.91668981 -.00491406 00000-0 -67204-2 0 9990 |
L2 | 2 47670 53.0481 189.7434 0001398 36.8496 358.6503 15.58451893 1774 |
Live tracking and technical data element details for STARLINK-2062 (NORAD 47670). STARLINK-2062 can be tracked NOW for your location showing map with azimuth and elevation plus other details from your city location.
Track the satellite on the map from your city or location and see movement details for azimuth, elevation, latitude, longitude, range, height, and movement on the map or in text.
IsCatalogInMostPopularTable: catalog: 47670, numindb: 20
Update: records affected: 1
GetName: 47670 STARLINK-2062
Hit Count: updated at: Tue, 13 Apr 2021 03:55:38 GMT